Home   Weather   Peterborough   Past weeks

Flag for United Kingdom Past Weather in Peterborough, England, United Kingdom — Yesterday and Last 2 Weeks

Now
55 °F

Cool.


Feels Like: 53 °F
Forecast: 54 / 73 °F
Wind: 8 mph from Southwest

Location: Wittering

Current Time: Aug 31, 2016 at 5:32:32 AM

Latest Report: Aug 31, 2016 at 4:50 AM


Visibility: N/A

Pressure: 30.09 "Hg

Humidity: 88%

Dew Point: 52 °F

Location of PeterboroughLocation

Past Weather in Peterborough — Graph

°F

Peterborough Temperature Yesterday

Maximum temperature yesterday: 77 °F (at 3:50 PM)
Minimum temperature yesterday: 54 °F (at 4:50 AM)
Average temperature yesterday: 65 °F

High & Low Weather Summary for the Past Weeks

 TemperatureHumidityPressure
High86 °F (Aug 23, 3:50 PM)100% (Aug 17, 4:50 AM)30.27 "Hg (Aug 17, 4:50 AM)
Low50 °F (Aug 16, 4:50 AM)35% (Aug 23, 3:50 PM)29.59 "Hg (Aug 20, 4:50 AM)
Average64 °F77%29.99 "Hg
* Reported Aug 16 3:50 AM — Aug 31 3:50 AM, Peterborough, Weather by CustomWeather, © 2016

Note: Actual official high and low records may vary slightly from our data, if they occured in-between our weather recording intervals... More about our weather records

Advertising

Peterborough Weather History for the Previous 24 Hours

Scroll right to see more
 ConditionsComfort  
Time TempWeatherWind HumidityBarometerVisibility
3:50 AM
Wed, Aug 31
55 °FCool.8 mph88%30.09 "HgN/A
2:50 AM57 °FCool.8 mph88%30.09 "HgN/A
1:50 AM57 °FCool.6 mph88%30.12 "HgN/A
12:50 AM59 °FCool.8 mph82%30.12 "HgN/A
11:50 PM
Tue, Aug 30
61 °FCool.7 mph77%30.12 "HgN/A
10:50 PM63 °FMild.6 mph73%30.15 "HgN/A
9:50 PM64 °FPassing clouds.5 mph68%30.15 "HgN/A
7:50 PM70 °FMild.5 mph57%30.15 "HgN/A
6:50 PM73 °FMild.8 mph53%30.15 "HgN/A
5:50 PM75 °FMild.9 mph47%30.15 "HgN/A
4:50 PM77 °FSunny.9 mph44%30.18 "Hg10 mi
3:50 PM77 °FSunny.10 mph44%30.18 "Hg10 mi
2:50 PM75 °FPassing clouds.12 mph47%30.21 "HgN/A
1:50 PM75 °FPassing clouds.10 mph47%30.21 "HgN/A
12:50 PM73 °FPassing clouds.14 mph47%30.24 "HgN/A
11:50 AM72 °FSunny.12 mph53%30.24 "Hg10 mi
10:50 AM70 °FSunny.10 mph60%30.24 "Hg10 mi
9:50 AM66 °FSunny.8 mph73%30.27 "Hg10 mi
8:50 AM63 °FSunny.6 mph83%30.24 "Hg10 mi
7:50 AM59 °FSunny.8 mph82%30.24 "Hg10 mi
6:50 AM54 °FCool.3 mph88%30.24 "HgN/A
5:50 AM54 °FCool.8 mph88%30.24 "HgN/A
Weather by CustomWeather, © 2016

See weather overviewHow to use our weather pages